| time (UTC) | temp C | wind direction | speed KPH | gust KPH | rain 1hr cm | rain 24hr cm | rain mn cm | humidity % | barometer mb |
| 20260506144507 | 18 | 270 | 0.0 | 20.9 | 0.00 | 0.00 | 0.00 | 79 | 1007.7 |
| 20260506144503 | 17 | 216 | 6.4 | 20.9 | 0.00 | 0.00 | 0.00 | 79 | 1009.3 |
| 20260506143817 | 17 | 199 | 4.8 | 16.1 | 0.00 | 0.00 | 0.00 | 79 | 1009.3 |
| 20260506143006 | 18 | 228 | 8.0 | 16.1 | 0.00 | 0.00 | 0.00 | 79 | 1008.1 |
| 20260506142703 | 17 | 208 | 4.8 | 16.1 | 0.00 | 0.00 | 0.00 | 79 | 1009.6 |
| 20260506141803 | 17 | 200 | 4.8 | 20.9 | 0.00 | 0.00 | 0.00 | 80 | 1009.6 |
| 20260506141505 | 17 | 180 | 1.6 | 11.3 | 0.00 | 0.00 | 0.00 | 80 | 1008.4 |
| 20260506140903 | 17 | 195 | 3.2 | 9.7 | 0.00 | 0.00 | 0.00 | 80 | 1009.6 |
| 20260506140003 | 17 | 215 | 0.0 | 8.0 | 0.00 | 0.00 | 0.00 | 81 | 1008.4 |
| 20260506135403 | 17 | 185 | 3.2 | 16.1 | 0.00 | 0.00 | 0.00 | 80 | 1009.6 |
| 20260506134503 | 17 | 193 | 4.8 | 20.9 | 0.00 | 0.00 | 0.00 | 81 | 1009.3 |
| 20260506134458 | 17 | 202 | 9.7 | 9.7 | 0.00 | 0.00 | 0.00 | 81 | 1007.7 |
| 20260506133603 | 17 | 192 | 4.8 | 20.9 | 0.00 | 0.00 | 0.00 | 82 | 1009.3 |
| 20260506132954 | 17 | 90 | 0.0 | 11.3 | 0.00 | 0.00 | 0.00 | 82 | 1008.0 |
| 20260506132918 | 16 | 191 | 4.8 | 16.1 | 0.00 | 0.00 | 0.00 | 82 | 1009.3 |
| 20260506131803 | 16 | 182 | 3.2 | 20.9 | 0.00 | 0.00 | 0.00 | 82 | 1009.3 |
| 20260506131450 | 16 | 74 | 0.0 | 9.7 | 0.00 | 0.00 | 0.00 | 83 | 1007.8 |
| 20260506130903 | 16 | 198 | 4.8 | 14.5 | 0.00 | 0.00 | 0.00 | 83 | 1008.9 |
| 20260506130004 | 16 | 195 | 4.8 | 19.3 | 0.00 | 0.00 | 0.00 | 83 | 1009.6 |
| 20260506125948 | 16 | 228 | 3.2 | 14.5 | 0.00 | 0.00 | 0.00 | 83 | 1008.0 |
| 20260506125403 | 16 | 201 | 4.8 | 19.3 | 0.00 | 0.00 | 0.00 | 83 | 1009.3 |
| 20260506124503 | 16 | 192 | 3.2 | 12.9 | 0.00 | 0.00 | 0.00 | 83 | 1009.6 |
| 20260506124447 | 16 | 252 | 0.0 | 6.4 | 0.00 | 0.00 | 0.00 | 83 | 1008.4 |
| 20260506123603 | 16 | 166 | 3.2 | 25.7 | 0.00 | 0.00 | 0.00 | 83 | 1009.3 |
| 20260506122946 | 16 | 190 | 0.0 | 14.5 | 0.00 | 0.00 | 0.00 | 83 | 1008.0 |
| 20260506122703 | 16 | 192 | 4.8 | 25.7 | 0.00 | 0.00 | 0.00 | 83 | 1009.6 |
| 20260506121803 | 16 | 215 | 4.8 | 12.9 | 0.00 | 0.00 | 0.00 | 83 | 1010.0 |
| 20260506121443 | 16 | 82 | 4.8 | 8.0 | 0.00 | 0.00 | 0.00 | 84 | 1008.5 |
| 20260506121118 | 16 | 197 | 3.2 | 25.7 | 0.00 | 0.00 | 0.00 | 83 | 1010.0 |
| 20260506120004 | 16 | 188 | 3.2 | 14.5 | 0.00 | 0.00 | 0.00 | 83 | 1010.0 |
| 20260506115941 | 16 | 213 | 4.8 | 12.9 | 0.00 | 0.00 | 0.00 | 83 | 1008.5 |
| 20260506115403 | 16 | 178 | 4.8 | 14.5 | 0.00 | 0.00 | 0.00 | 83 | 1009.6 |
| 20260506114718 | 16 | 185 | 3.2 | 12.9 | 0.00 | 0.00 | 0.00 | 84 | 1009.6 |
| 20260506114440 | 16 | 156 | 8.0 | 11.3 | 0.00 | 0.00 | 0.00 | 84 | 1008.4 |
| 20260506113603 | 15 | 143 | 1.6 | 8.0 | 0.00 | 0.03 | 0.00 | 84 | 1009.6 |
| 20260506112937 | 15 | 114 | 0.0 | 6.4 | 0.00 | 0.00 | 0.00 | 85 | 1008.2 |
| 20260506112917 | 15 | 170 | 1.6 | 9.7 | 0.00 | 0.03 | 0.00 | 85 | 1009.6 |
| 20260506112016 | 15 | 142 | 1.6 | 9.7 | 0.00 | 0.03 | 0.00 | 85 | 1009.6 |
| 20260506111436 | 15 | 198 | 0.0 | 4.8 | 0.00 | 0.00 | 0.00 | 85 | 1008.4 |
| 20260506110903 | 15 | 187 | 3.2 | 11.3 | 0.00 | 0.03 | 0.00 | 85 | 1009.6 |
| 20260506110217 | 15 | 185 | 3.2 | 11.3 | 0.00 | 0.03 | 0.00 | 85 | 1009.6 |
| 20260506105933 | 15 | 230 | 3.2 | 11.3 | 0.00 | 0.00 | 0.00 | 85 | 1008.2 |
| 20260506105403 | 15 | 157 | 1.6 | 9.7 | 0.00 | 0.03 | 0.00 | 86 | 1010.0 |
| 20260506104503 | 15 | 180 | 3.2 | 9.7 | 0.00 | 0.03 | 0.00 | 86 | 1009.6 |
| 20260506104431 | 15 | 345 | 0.0 | 9.7 | 0.00 | 0.00 | 0.00 | 86 | 1008.1 |
| 20260506103603 | 14 | 169 | 1.6 | 8.0 | 0.00 | 0.03 | 0.00 | 86 | 1009.6 |
| 20260506102928 | 14 | 103 | 0.0 | 3.2 | 0.00 | 0.00 | 0.00 | 87 | 1008.1 |
| 20260506102703 | 14 | 116 | 1.6 | 6.4 | 0.00 | 0.03 | 0.00 | 87 | 1009.6 |
| 20260506101804 | 14 | 77 | 1.6 | 4.8 | 0.00 | 0.03 | 0.00 | 88 | 1009.3 |
| 20260506101425 | 13 | 90 | 0.0 | 4.8 | 0.00 | 0.00 | 0.00 | 88 | 1008.0 |
| 20260506100903 | 13 | 100 | 1.6 | 4.8 | 0.00 | 0.03 | 0.00 | 88 | 1009.6 |
| 20260506100003 | 13 | 77 | 1.6 | 8.0 | 0.00 | 0.03 | 0.00 | 89 | 1009.6 |
| 20260506095925 | 13 | 73 | 0.0 | 4.8 | 0.00 | 0.00 | 0.00 | 89 | 1007.9 |
| 20260506095403 | 13 | 54 | 1.6 | 8.0 | 0.00 | 0.03 | 0.00 | 89 | 1009.6 |
| 20260506094503 | 13 | 60 | 1.6 | 4.8 | 0.00 | 0.03 | 0.00 | 89 | 1009.6 |
| 20260506094424 | 13 | 54 | 0.0 | 3.2 | 0.00 | 0.00 | 0.00 | 89 | 1008.0 |
| 20260506093603 | 13 | 63 | 1.6 | 4.8 | 0.00 | 0.03 | 0.00 | 89 | 1009.3 |
| 20260506092922 | 13 | 83 | 0.0 | 4.8 | 0.00 | 0.00 | 0.00 | 89 | 1008.2 |
| 20260506092703 | 13 | 53 | 0.0 | 4.8 | 0.00 | 0.03 | 0.00 | 89 | 1009.6 |
| 20260506091803 | 13 | 49 | 1.6 | 4.8 | 0.00 | 0.03 | 0.00 | 89 | 1009.6 |
| 20260506091420 | 12 | 26 | 0.0 | 3.2 | 0.00 | 0.00 | 0.00 | 88 | 1008.0 |
| 20260506090903 | 13 | 23 | 1.6 | 6.4 | 0.00 | 0.03 | 0.00 | 88 | 1009.6 |
| 20260506090003 | 13 | 34 | 1.6 | 6.4 | 0.00 | 0.03 | 0.00 | 88 | 1009.6 |
| 20260506085917 | 13 | 23 | 0.0 | 3.2 | 0.00 | 0.00 | 0.00 | 88 | 1008.1 |
| 20260506085618 | 13 | 46 | 1.6 | 3.2 | 0.00 | 0.03 | 0.00 | 88 | 1009.3 |
| 20260506084503 | 13 | 44 | 1.6 | 4.8 | 0.00 | 0.03 | 0.00 | 88 | 1009.6 |
| 20260506084413 | 12 | 26 | 0.0 | 1.6 | 0.00 | 0.00 | 0.00 | 87 | 1008.1 |
| 20260506083603 | 13 | 38 | 1.6 | 6.4 | 0.00 | 0.03 | 0.00 | 87 | 1009.6 |
| 20260506082910 | 13 | 7 | 3.2 | 6.4 | 0.00 | 0.00 | 0.00 | 86 | 1008.5 |
| 20260506082703 | 13 | 43 | 1.6 | 6.4 | 0.00 | 0.03 | 0.00 | 86 | 1009.6 |
| 20260506081803 | 14 | 54 | 1.6 | 4.8 | 0.00 | 0.03 | 0.00 | 85 | 1009.6 |
| 20260506081407 | 14 | 15 | 0.0 | 3.2 | 0.00 | 0.00 | 0.00 | 84 | 1008.5 |
| 20260506081117 | 14 | 43 | 1.6 | 4.8 | 0.00 | 0.03 | 0.00 | 84 | 1009.6 |
| 20260506072859 | 15 | 194 | 1.6 | 4.8 | 0.00 | 0.00 | 0.00 | 81 | 1008.4 |
| 20260506072703 | 15 | 189 | 1.6 | 9.7 | 0.00 | 0.03 | 0.00 | 81 | 1010.0 |
| 20260506071803 | 15 | 181 | 1.6 | 9.7 | 0.00 | 0.03 | 0.00 | 80 | 1009.6 |
| 20260506071358 | 16 | 98 | 3.2 | 8.0 | 0.00 | 0.00 | 0.00 | 80 | 1008.5 |
| 20260506070903 | 16 | 213 | 4.8 | 9.7 | 0.00 | 0.03 | 0.00 | 79 | 1009.6 |
| 20260506061803 | 16 | 211 | 4.8 | 20.9 | 0.00 | 0.03 | 0.00 | 75 | 1009.6 |
| 20260506061344 | 16 | 225 | 4.8 | 20.9 | 0.00 | 0.00 | 0.00 | 75 | 1008.0 |
| 20260506060903 | 16 | 199 | 4.8 | 16.1 | 0.00 | 0.03 | 0.00 | 74 | 1009.6 |
| 20260506051336 | 17 | 211 | 4.8 | 8.0 | 0.00 | 0.00 | 0.00 | 72 | 1009.0 |
| 20260506050903 | 17 | 219 | 4.8 | 19.3 | 0.00 | 0.03 | 0.00 | 71 | 1010.3 |
| 20260506044503 | 18 | 207 | 6.4 | 20.9 | 0.00 | 0.03 | 0.00 | 69 | 1010.3 |
| 20260506044330 | 18 | 220 | 3.2 | 16.1 | 0.00 | 0.00 | 0.00 | 69 | 1008.8 |
| 20260506043603 | 18 | 208 | 6.4 | 25.7 | 0.00 | 0.03 | 0.00 | 69 | 1010.3 |
| 20260506042829 | 18 | 240 | 11.3 | 25.7 | 0.00 | 0.00 | 0.00 | 69 | 1008.8 |
| 20260506042703 | 18 | 206 | 6.4 | 25.7 | 0.00 | 0.03 | 0.00 | 68 | 1010.3 |
| 20260506042018 | 18 | 214 | 6.4 | 20.9 | 0.00 | 0.03 | 0.00 | 68 | 1010.3 |
| 20260506041328 | 18 | 216 | 0.0 | 14.5 | 0.00 | 0.00 | 0.00 | 68 | 1008.9 |
| 20260506040903 | 18 | 195 | 4.8 | 22.5 | 0.00 | 0.03 | 0.00 | 68 | 1010.3 |
| 20260506040008 | 18 | 209 | 4.8 | 14.5 | 0.00 | 0.03 | 0.00 | 68 | 1010.0 |
| 20260506035825 | 18 | 215 | 1.6 | 14.5 | 0.00 | 0.00 | 0.00 | 68 | 1008.7 |
| 20260506035618 | 18 | 211 | 6.4 | 20.9 | 0.00 | 0.03 | 0.03 | 68 | 1010.3 |
| 20260506034503 | 18 | 205 | 6.4 | 22.5 | 0.00 | 0.03 | 0.03 | 66 | 1010.3 |
| 20260506034322 | 18 | 202 | 3.2 | 12.9 | 0.00 | 0.00 | 0.00 | 67 | 1008.7 |
| 20260506033817 | 18 | 201 | 6.4 | 16.1 | 0.00 | 0.03 | 0.03 | 67 | 1010.0 |
| 20260506032819 | 18 | 227 | 0.0 | 12.9 | 0.00 | 0.00 | 0.00 | 67 | 1008.7 |
| 20260506032703 | 18 | 206 | 4.8 | 17.7 | 0.00 | 0.03 | 0.03 | 67 | 1010.3 |
| 20260506031803 | 18 | 205 | 4.8 | 22.5 | 0.00 | 0.03 | 0.03 | 66 | 1010.0 |
| 20260506031315 | 18 | 205 | 6.4 | 11.3 | 0.00 | 0.00 | 0.00 | 66 | 1008.8 |
| 20260506031117 | 18 | 209 | 4.8 | 22.5 | 0.00 | 0.03 | 0.03 | 66 | 1010.0 |
| 20260506030003 | 18 | 209 | 4.8 | 24.1 | 0.00 | 0.03 | 0.03 | 66 | 1010.3 |
| 20260506025813 | 18 | 259 | 4.8 | 9.7 | 0.00 | 0.00 | 0.00 | 66 | 1008.7 |
| 20260506025403 | 18 | 205 | 3.2 | 24.1 | 0.00 | 0.03 | 0.03 | 65 | 1010.3 |
| 20260506024503 | 18 | 186 | 3.2 | 9.7 | 0.00 | 0.03 | 0.03 | 67 | 1010.3 |
| 20260506024309 | 18 | 198 | 0.0 | 4.8 | 0.00 | 0.00 | 0.00 | 67 | 1008.8 |
| 20260506023603 | 18 | 192 | 3.2 | 8.0 | 0.00 | 0.03 | 0.03 | 67 | 1010.0 |
| 20260506022805 | 18 | 206 | 0.0 | 4.8 | 0.00 | 0.00 | 0.00 | 67 | 1008.8 |
| 20260506022703 | 18 | 162 | 1.6 | 9.7 | 0.00 | 0.03 | 0.03 | 67 | 1010.0 |
| 20260506021803 | 18 | 170 | 1.6 | 6.4 | 0.00 | 0.03 | 0.03 | 66 | 1010.3 |
| 20260506021303 | 18 | 71 | 1.6 | 6.4 | 0.00 | 0.00 | 0.00 | 65 | 1009.1 |
| 20260506020903 | 18 | 167 | 1.6 | 4.8 | 0.00 | 0.03 | 0.03 | 65 | 1010.0 |
| 20260506020003 | 18 | 180 | 1.6 | 11.3 | 0.00 | 0.03 | 0.03 | 65 | 1010.3 |
| 20260506015801 | 19 | 195 | 0.0 | 6.4 | 0.00 | 0.00 | 0.00 | 64 | 1008.8 |
| 20260506015403 | 18 | 193 | 1.6 | 4.8 | 0.00 | 0.03 | 0.03 | 65 | 1010.3 |
| 20260506014503 | 18 | 175 | 3.2 | 12.9 | 0.00 | 0.03 | 0.03 | 65 | 1010.0 |
| 20260506014257 | 18 | 135 | 3.2 | 8.0 | 0.00 | 0.00 | 0.00 | 63 | 1008.6 |
| 20260506013603 | 19 | 173 | 1.6 | 11.3 | 0.00 | 0.03 | 0.03 | 63 | 1010.0 |
| 20260506012753 | 19 | 194 | 0.0 | 3.2 | 0.00 | 0.00 | 0.00 | 63 | 1008.1 |
| 20260506012703 | 19 | 235 | 0.0 | 3.2 | 0.00 | 0.03 | 0.03 | 62 | 1009.6 |
| 20260506011803 | 19 | 205 | 1.6 | 4.8 | 0.00 | 0.03 | 0.03 | 62 | 1009.6 |
| 20260506011249 | 19 | 270 | 0.0 | 1.6 | 0.00 | 0.00 | 0.00 | 62 | 1007.8 |
| 20260506011118 | 20 | 214 | 1.6 | 6.4 | 0.00 | 0.03 | 0.03 | 62 | 1009.6 |
| 20260506010003 | 20 | 219 | 1.6 | 9.7 | 0.00 | 0.03 | 0.03 | 63 | 1009.3 |
| 20260506005748 | 19 | 180 | 4.8 | 4.8 | 0.00 | 0.00 | 0.00 | 63 | 1007.9 |
| 20260506005403 | 19 | 220 | 1.6 | 6.4 | 0.00 | 0.03 | 0.03 | 63 | 1009.3 |
| 20260506004504 | 19 | 233 | 1.6 | 6.4 | 0.00 | 0.03 | 0.03 | 62 | 1009.3 |
| 20260506004244 | 19 | 241 | 3.2 | 4.8 | 0.00 | 0.00 | 0.00 | 64 | 1007.9 |
| 20260506003818 | 19 | 219 | 1.6 | 6.4 | 0.00 | 0.03 | 0.03 | 63 | 1009.3 |
| 20260506002917 | 19 | 202 | 1.6 | 6.4 | 0.00 | 0.03 | 0.03 | 64 | 1009.3 |
| 20260506002744 | 19 | 249 | 0.0 | 4.8 | 0.00 | 0.00 | 0.00 | 63 | 1007.6 |
| 20260506002018 | 19 | 209 | 1.6 | 3.2 | 0.00 | 0.03 | 0.03 | 64 | 1008.9 |
| 20260506001240 | 20 | 99 | 0.0 | 3.2 | 0.00 | 0.00 | 0.00 | 63 | 1007.5 |
| 20260506000903 | 19 | 177 | 1.6 | 8.0 | 0.00 | 0.03 | 0.03 | 63 | 1008.9 |
| 20260506000003 | 20 | 197 | 1.6 | 6.4 | 0.00 | 0.03 | 0.03 | 63 | 1008.9 |
| 20260505235737 | 19 | 243 | 3.2 | 4.8 | 0.00 | 0.00 | 0.00 | 64 | 1007.5 |
| 20260505235403 | 20 | 154 | 1.6 | 6.4 | 0.00 | 0.03 | 0.03 | 63 | 1008.9 |
| 20260505234503 | 20 | 147 | 1.6 | 11.3 | 0.00 | 0.03 | 0.03 | 62 | 1008.6 |
| 20260505234235 | 20 | 237 | 3.2 | 11.3 | 0.00 | 0.00 | 0.00 | 61 | 1007.1 |
| 20260505233603 | 20 | 153 | 1.6 | 9.7 | 0.00 | 0.03 | 0.03 | 61 | 1008.6 |
| 20260505232732 | 20 | 159 | 3.2 | 6.4 | 0.00 | 0.00 | 0.00 | 60 | 1006.9 |
| 20260505232703 | 20 | 147 | 3.2 | 9.7 | 0.00 | 0.03 | 0.03 | 60 | 1008.2 |
| 20260505231803 | 21 | 157 | 3.2 | 12.9 | 0.00 | 0.03 | 0.03 | 59 | 1008.6 |
| 20260505231231 | 21 | 194 | 1.6 | 12.9 | 0.00 | 0.00 | 0.00 | 59 | 1006.7 |
| 20260505230903 | 21 | 144 | 3.2 | 12.9 | 0.00 | 0.03 | 0.03 | 59 | 1008.2 |
| 20260505230003 | 21 | 150 | 3.2 | 11.3 | 0.00 | 0.03 | 0.03 | 59 | 1007.9 |
| 20260505225727 | 21 | 172 | 4.8 | 8.0 | 0.00 | 0.00 | 0.00 | 59 | 1006.5 |
| 20260505225403 | 21 | 150 | 3.2 | 11.3 | 0.00 | 0.03 | 0.03 | 58 | 1008.2 |
| 20260505224503 | 21 | 128 | 4.8 | 14.5 | 0.00 | 0.03 | 0.03 | 57 | 1007.9 |
| 20260505224223 | 22 | 210 | 3.2 | 11.3 | 0.00 | 0.00 | 0.00 | 58 | 1006.6 |
| 20260505223603 | 22 | 101 | 3.2 | 12.9 | 0.00 | 0.03 | 0.03 | 57 | 1007.9 |
| 20260505222918 | 22 | 102 | 3.2 | 9.7 | 0.00 | 0.03 | 0.03 | 57 | 1007.9 |
| 20260505222719 | 22 | 180 | 1.6 | 8.0 | 0.00 | 0.00 | 0.00 | 56 | 1006.3 |
| 20260505221803 | 22 | 111 | 3.2 | 12.9 | 0.00 | 0.03 | 0.03 | 55 | 1007.9 |
| 20260505221215 | 23 | 119 | 3.2 | 6.4 | 0.00 | 0.00 | 0.00 | 54 | 1006.3 |
| 20260505220903 | 23 | 102 | 3.2 | 11.3 | 0.00 | 0.03 | 0.03 | 54 | 1007.9 |
| 20260505220003 | 23 | 133 | 3.2 | 17.7 | 0.00 | 0.03 | 0.03 | 54 | 1007.9 |
| 20260505215713 | 23 | 201 | 0.0 | 6.4 | 0.00 | 0.00 | 0.00 | 54 | 1006.3 |
| 20260505215618 | 23 | 148 | 3.2 | 17.7 | 0.00 | 0.03 | 0.03 | 53 | 1007.9 |
| 20260505214503 | 24 | 145 | 3.2 | 12.9 | 0.00 | 0.03 | 0.03 | 50 | 1007.9 |
| 20260505214212 | 25 | 186 | 1.6 | 8.0 | 0.00 | 0.00 | 0.00 | 51 | 1006.4 |
| 20260505213816 | 24 | 186 | 3.2 | 12.9 | 0.00 | 0.03 | 0.03 | 50 | 1007.9 |
| 20260505212708 | 25 | 124 | 0.0 | 9.7 | 0.00 | 0.00 | 0.00 | 50 | 1006.1 |
| 20260505212703 | 24 | 145 | 4.8 | 16.1 | 0.00 | 0.03 | 0.03 | 50 | 1007.9 |
| 20260505211803 | 24 | 147 | 4.8 | 24.1 | 0.00 | 0.03 | 0.03 | 50 | 1007.5 |
| 20260505211205 | 25 | 257 | 1.6 | 16.1 | 0.00 | 0.00 | 0.00 | 49 | 1006.0 |
| 20260505211116 | 25 | 132 | 4.8 | 17.7 | 0.00 | 0.03 | 0.03 | 49 | 1007.2 |
| 20260505210218 | 25 | 155 | 4.8 | 16.1 | 0.00 | 0.03 | 0.03 | 48 | 1007.2 |
| 20260505205702 | 25 | 180 | 1.6 | 8.0 | 0.00 | 0.00 | 0.00 | 48 | 1005.9 |
| 20260505205403 | 25 | 138 | 4.8 | 17.7 | 0.00 | 0.03 | 0.03 | 48 | 1007.2 |
| 20260505204503 | 25 | 135 | 4.8 | 16.1 | 0.00 | 0.03 | 0.03 | 45 | 1007.2 |
| 20260505204200 | 26 | 248 | 8.0 | 11.3 | 0.00 | 0.00 | 0.00 | 47 | 1006.0 |
| 20260505203603 | 25 | 184 | 4.8 | 19.3 | 0.00 | 0.03 | 0.03 | 46 | 1007.5 |
| 20260505202917 | 25 | 210 | 4.8 | 19.3 | 0.00 | 0.03 | 0.03 | 47 | 1007.5 |
| 20260505202655 | 25 | 233 | 4.8 | 12.9 | 0.00 | 0.00 | 0.00 | 47 | 1006.1 |
| 20260505201803 | 25 | 199 | 4.8 | 22.5 | 0.00 | 0.03 | 0.03 | 45 | 1007.5 |
| 20260505201152 | 26 | 222 | 0.0 | 4.8 | 0.00 | 0.00 | 0.00 | 44 | 1006.3 |
| 20260505201118 | 25 | 217 | 4.8 | 20.9 | 0.00 | 0.03 | 0.03 | 44 | 1007.5 |
| 20260505200003 | 25 | 206 | 8.0 | 25.7 | 0.00 | 0.03 | 0.03 | 44 | 1007.9 |
| 20260505195648 | 26 | 220 | 11.3 | 24.1 | 0.00 | 0.00 | 0.00 | 45 | 1006.2 |
| 20260505195617 | 25 | 207 | 8.0 | 24.1 | 0.00 | 0.03 | 0.03 | 45 | 1007.9 |
| 20260505194718 | 25 | 199 | 8.0 | 24.1 | 0.00 | 0.03 | 0.03 | 45 | 1007.5 |
| 20260505194145 | 27 | 174 | 11.3 | 19.3 | 0.00 | 0.00 | 0.00 | 43 | 1006.3 |
| 20260505193818 | 26 | 212 | 6.4 | 20.9 | 0.00 | 0.03 | 0.03 | 44 | 1007.5 |
| 20260505192703 | 26 | 214 | 4.8 | 22.5 | 0.00 | 0.03 | 0.03 | 45 | 1007.9 |
| 20260505192643 | 26 | 199 | 3.2 | 17.7 | 0.00 | 0.00 | 0.00 | 44 | 1006.3 |
| 20260505191803 | 25 | 190 | 8.0 | 25.7 | 0.00 | 0.03 | 0.03 | 45 | 1007.9 |
| 20260505191142 | 26 | 208 | 8.0 | 25.7 | 0.00 | 0.00 | 0.00 | 44 | 1006.4 |
| 20260505190903 | 26 | 198 | 4.8 | 19.3 | 0.00 | 0.03 | 0.03 | 44 | 1007.9 |
| 20260505190003 | 26 | 227 | 8.0 | 24.1 | 0.00 | 0.03 | 0.03 | 46 | 1007.9 |
| 20260505185640 | 26 | 264 | 4.8 | 19.3 | 0.00 | 0.00 | 0.00 | 47 | 1006.8 |
| 20260505185403 | 25 | 208 | 8.0 | 24.1 | 0.00 | 0.03 | 0.03 | 45 | 1008.2 |
| 20260505184503 | 25 | 218 | 9.7 | 30.6 | 0.00 | 0.03 | 0.03 | 44 | 1008.2 |
| 20260505184136 | 26 | 224 | 16.1 | 25.7 | 0.00 | 0.00 | 0.00 | 45 | 1006.8 |
| 20260505183603 | 25 | 205 | 6.4 | 20.9 | 0.00 | 0.03 | 0.03 | 45 | 1008.2 |
| 20260505182703 | 25 | 211 | 8.0 | 37.0 | 0.00 | 0.03 | 0.03 | 45 | 1008.2 |
| 20260505182632 | 26 | 217 | 4.8 | 8.0 | 0.00 | 0.00 | 0.00 | 44 | 1006.8 |
| 20260505181804 | 25 | 218 | 8.0 | 22.5 | 0.00 | 0.03 | 0.03 | 43 | 1008.2 |
| 20260505181129 | 26 | 191 | 3.2 | 17.7 | 0.00 | 0.00 | 0.00 | 44 | 1006.9 |
| 20260505180903 | 26 | 217 | 6.4 | 30.6 | 0.00 | 0.03 | 0.03 | 43 | 1008.6 |
| 20260505180003 | 25 | 210 | 8.0 | 30.6 | 0.00 | 0.03 | 0.03 | 43 | 1008.6 |
| 20260505175624 | 26 | 188 | 6.4 | 19.3 | 0.00 | 0.00 | 0.00 | 43 | 1006.7 |
| 20260505175618 | 25 | 198 | 8.0 | 27.4 | 0.00 | 0.03 | 0.03 | 43 | 1008.2 |
| 20260505174503 | 26 | 198 | 4.8 | 17.7 | 0.00 | 0.03 | 0.03 | 42 | 1008.6 |
| 20260505174120 | 26 | 125 | 8.0 | 16.1 | 0.00 | 0.00 | 0.00 | 44 | 1007.1 |
| 20260505173603 | 25 | 210 | 8.0 | 29.0 | 0.00 | 0.03 | 0.03 | 44 | 1008.6 |
| 20260505172703 | 25 | 201 | 4.8 | 25.7 | 0.00 | 0.03 | 0.03 | 43 | 1008.6 |
| 20260505172617 | 26 | 235 | 3.2 | 9.7 | 0.00 | 0.00 | 0.00 | 43 | 1007.3 |
| 20260505171803 | 25 | 213 | 6.4 | 20.9 | 0.00 | 0.03 | 0.03 | 45 | 1008.9 |
| 20260505171117 | 25 | 220 | 8.0 | 17.7 | 0.00 | 0.00 | 0.00 | 45 | 1007.3 |
| 20260505170903 | 25 | 199 | 6.4 | 25.7 | 0.00 | 0.03 | 0.03 | 45 | 1008.9 |
| 20260505170003 | 24 | 214 | 6.4 | 25.7 | 0.00 | 0.03 | 0.03 | 46 | 1009.3 |
| 20260505165617 | 26 | 208 | 6.4 | 12.9 | 0.00 | 0.00 | 0.00 | 46 | 1007.9 |
| 20260505165403 | 25 | 202 | 6.4 | 20.9 | 0.00 | 0.03 | 0.03 | 46 | 1009.3 |
| 20260505164503 | 24 | 191 | 4.8 | 17.7 | 0.00 | 0.03 | 0.03 | 47 | 1009.6 |
| 20260505164113 | 25 | 225 | 0.0 | 17.7 | 0.00 | 0.00 | 0.00 | 47 | 1008.1 |
| 20260505163603 | 23 | 187 | 6.4 | 24.1 | 0.00 | 0.03 | 0.03 | 48 | 1009.6 |
| 20260505162703 | 23 | 206 | 6.4 | 20.9 | 0.00 | 0.03 | 0.03 | 48 | 1010.0 |
| 20260505162611 | 25 | 152 | 9.7 | 20.9 | 0.00 | 0.00 | 0.00 | 48 | 1008.4 |
| 20260505161803 | 23 | 220 | 6.4 | 17.7 | 0.00 | 0.03 | 0.03 | 50 | 1010.0 |
| 20260505161117 | 23 | 215 | 6.4 | 24.1 | 0.00 | 0.03 | 0.03 | 50 | 1010.3 |
| 20260505161109 | 23 | 279 | 3.2 | 14.5 | 0.00 | 0.00 | 0.00 | 49 | 1008.4 |
| 20260505160218 | 23 | 213 | 6.4 | 22.5 | 0.00 | 0.03 | 0.03 | 51 | 1010.0 |
| 20260505152703 | 22 | 192 | 4.8 | 12.9 | 0.00 | 0.03 | 0.03 | 52 | 1010.3 |
| 20260505152602 | 23 | 183 | 4.8 | 14.5 | 0.00 | 0.00 | 0.00 | 53 | 1008.7 |
| 20260505151803 | 22 | 204 | 6.4 | 19.3 | 0.00 | 0.03 | 0.03 | 54 | 1010.3 |
| 20260505151057 | 22 | 228 | 3.2 | 19.3 | 0.00 | 0.00 | 0.00 | 56 | 1008.9 |
| 20260505150903 | 22 | 200 | 6.4 | 17.7 | 0.00 | 0.03 | 0.03 | 54 | 1010.3 |